TimeEDT,TemperatureF,Dew PointF,Humidity,Sea Level PressureIn,VisibilityMPH,Wind Direction,Wind SpeedMPH,Gust SpeedMPH,PrecipitationIn,Events,Conditions,WindDirDegrees,DateUTC
12:53 AM,69.1,60.1,73,30.16,10.0,ENE,3.5,-,N/A,,Clear,60,2013-07-13 04:53:00
1:53 AM,68.0,59.0,73,30.16,10.0,NE,3.5,-,N/A,,Clear,40,2013-07-13 05:53:00
2:53 AM,66.9,59.0,76,30.16,10.0,NNE,3.5,-,N/A,,Clear,20,2013-07-13 06:53:00
3:53 AM,66.0,59.0,78,30.16,10.0,North,3.5,-,N/A,,Clear,360,2013-07-13 07:53:00
4:53 AM,64.9,60.1,84,30.17,10.0,NNE,3.5,-,N/A,,Clear,20,2013-07-13 08:53:00
5:53 AM,64.0,60.1,87,30.17,10.0,North,4.6,-,N/A,,Clear,10,2013-07-13 09:53:00
6:53 AM,66.0,62.1,87,30.19,10.0,North,3.5,-,N/A,,Clear,10,2013-07-13 10:53:00
7:53 AM,69.1,62.1,78,30.19,10.0,NNE,3.5,-,N/A,,Clear,30,2013-07-13 11:53:00
8:53 AM,72.0,64.0,76,30.21,10.0,ENE,5.8,-,N/A,,Clear,60,2013-07-13 12:53:00
9:53 AM,73.9,61.0,64,30.21,10.0,East,9.2,-,N/A,,Clear,100,2013-07-13 13:53:00
10:53 AM,75.0,59.0,57,30.21,10.0,East,6.9,-,N/A,,Clear,90,2013-07-13 14:53:00
11:53 AM,75.9,57.9,54,30.21,10.0,East,9.2,-,N/A,,Clear,80,2013-07-13 15:53:00
12:53 PM,78.1,57.9,50,30.21,10.0,East,4.6,-,N/A,,Clear,100,2013-07-13 16:53:00
1:53 PM,79.0,61.0,54,30.21,10.0,ESE,10.4,-,N/A,,Clear,110,2013-07-13 17:53:00
2:53 PM,80.1,64.0,58,30.20,10.0,ESE,10.4,-,N/A,,Clear,110,2013-07-13 18:53:00
3:53 PM,80.1,63.0,56,30.20,10.0,SE,6.9,-,N/A,,Partly Cloudy,130,2013-07-13 19:53:00
4:53 PM,81.0,64.0,56,30.19,10.0,ESE,8.1,-,N/A,,Clear,110,2013-07-13 20:53:00
5:53 PM,80.1,64.0,58,30.19,10.0,ESE,6.9,-,N/A,,Clear,110,2013-07-13 21:53:00
6:53 PM,80.1,64.0,58,30.19,10.0,ESE,8.1,-,N/A,,Clear,110,2013-07-13 22:53:00
7:53 PM,79.0,64.0,60,30.19,10.0,East,6.9,-,N/A,,Clear,100,2013-07-13 23:53:00
8:53 PM,78.1,63.0,60,30.18,10.0,ESE,6.9,-,N/A,,Clear,110,2013-07-14 00:53:00
9:53 PM,75.0,62.1,64,30.21,10.0,SE,5.8,-,N/A,,Clear,130,2013-07-14 01:53:00
10:53 PM,73.9,62.1,66,30.22,10.0,ESE,4.6,-,N/A,,Clear,110,2013-07-14 02:53:00
11:53 PM,73.0,63.0,71,30.23,10.0,ESE,4.6,-,N/A,,Clear,120,2013-07-14 03:53:00